Location: Gönnheim
(49.4488°N, 8.2383°E)
Time: 10:20:36
(UTC+00:00)

Cosmos 1500 Rocket - Pass Details

Date: 19 May 2025
Orbit: 598 x 623 km, 82.5° (Epoch: 23 June)

Event Time Altitude Azimuth Distance (km) Brightness Sun altitude
Rises 22:46:05 0° 350° (N) 2,880 8.6 -20.1°
Reaches altitude 10° 22:48:18 10° 350° (N) 1,975 7.4 -20.1°
Maximum altitude 22:52:41 89° 71° (ENE) 621 3.4 -20.2°
Enters shadow 22:53:42 53° 170° (S) 755 3.6 -20.3°
